FLOCK 3P-46 (42031 NORAD) Tracking and Keplerian Element Data

This shows tracking and keplerian element data for the satellite.

Feedback or suggestion? Click here.




ElementValue
Catalog42031
NameFLOCK 3P-46
Epoch Orbit5544
Epoch Day45.80170203
Epoch Year2018
RAAN111.3956
Inclination97.4657
Eccentricity0.0009701
Argument of Perigee84.8354
Mean Anonmoly275.399
Mean Motion15.23906992
Decay Rate1.159E-05
L11 42031U 17008CM 18045.80170203 .00001159 00000-0 50940-4 0 9993
L22 42031 97.4657 111.3956 0009701 84.8354 275.3990 15.23906992 55444

Live tracking and technical data element details for FLOCK 3P-46 (NORAD 42031). FLOCK 3P-46 can be tracked NOW for your location showing map with azimuth and elevation plus other details from your city location.

Track the satellite on the map from your city or location and see movement details for azimuth, elevation, latitude, longitude, range, height, and movement on the map or in text.







IsCatalogInMostPopularTable: catalog: 42031, numindb: 144
Update: records affected: 1



GetName: 42031 FLOCK 3P-46

Hit Count: updated at: Fri, 16 Nov 2018 10:08:14 GMT